Meteo pe oră la Dabrowki

Astăzi, 17 Aprilie, Sâmbătă

Timp Temperatura Precipitaţii Vânt Presiune Umiditate
00:00 +2°C° 0.2 mm 2 m/s 742 mmHg 99%
01:00 +2°C° 0.2 mm 2 m/s 742 mmHg 99%
02:00 +2°C° 0 mm 2 m/s 742 mmHg 99%
03:00 +2°C° 0 mm 2 m/s 742 mmHg 99%
04:00 +2°C° 0 mm 2 m/s 742 mmHg 99%
05:00 +3°C° 0.1 mm 2 m/s 742 mmHg 99%
06:00 +3°C° 0.1 mm 2 m/s 742 mmHg 99%
07:00 +3°C° 0.1 mm 2 m/s 743 mmHg 99%
08:00 +3°C° 0.2 mm 2 m/s 743 mmHg 98%
09:00 +4°C° 0.2 mm 2 m/s 743 mmHg 98%
10:00 +4°C° 0.2 mm 2 m/s 743 mmHg 98%
11:00 +4°C° 0.1 mm 2 m/s 743 mmHg 97%
12:00 +5°C° 0.1 mm 2 m/s 743 mmHg 96%
13:00 +5°C° 0.1 mm 2 m/s 743 mmHg 95%
14:00 +5°C° 0 mm 2 m/s 743 mmHg 95%
15:00 +5°C° 0 mm 2 m/s 743 mmHg 95%
16:00 +5°C° 0 mm 2 m/s 743 mmHg 95%
17:00 +6°C° 0 mm 1 m/s 743 mmHg 95%
18:00 +5°C° 0 mm 1 m/s 743 mmHg 96%
19:00 +5°C° 0 mm 1 m/s 744 mmHg 97%
20:00 +5°C° 0 mm 1 m/s 744 mmHg 97%
21:00 +5°C° 0 mm 1 m/s 744 mmHg 97%
22:00 +5°C° 0 mm 1 m/s 744 mmHg 97%
23:00 +5°C° 0 mm 1 m/s 744 mmHg 97%

Mâine, 18 Aprilie, Duminică

Timp Temperatura Precipitaţii Vânt Presiune Umiditate
00:00 +4°C° 0 mm 0 m/s 744 mmHg 97%
01:00 +4°C° 0 mm 0 m/s 744 mmHg 97%
02:00 +4°C° 0 mm 0 m/s 744 mmHg 97%
03:00 +4°C° 0 mm 0 m/s 743 mmHg 97%
04:00 +4°C° 0 mm 1 m/s 743 mmHg 97%
05:00 +5°C° 0 mm 1 m/s 743 mmHg 94%
06:00 +6°C° 0 mm 1 m/s 743 mmHg 91%
07:00 +6°C° 0 mm 1 m/s 744 mmHg 89%
08:00 +7°C° 0 mm 1 m/s 743 mmHg 82%
09:00 +8°C° 0 mm 2 m/s 743 mmHg 75%
10:00 +9°C° 0 mm 2 m/s 743 mmHg 69%
11:00 +10°C° 0 mm 2 m/s 743 mmHg 65%
12:00 +12°C° 0 mm 2 m/s 743 mmHg 62%
13:00 +12°C° 0 mm 2 m/s 743 mmHg 59%
14:00 +13°C° 0 mm 2 m/s 743 mmHg 60%
15:00 +13°C° 0 mm 2 m/s 743 mmHg 60%
16:00 +13°C° 0 mm 2 m/s 742 mmHg 60%
17:00 +12°C° 0 mm 1 m/s 742 mmHg 66%
18:00 +11°C° 0 mm 1 m/s 743 mmHg 71%
19:00 +10°C° 0 mm 1 m/s 743 mmHg 77%
20:00 +9°C° 0 mm 1 m/s 743 mmHg 79%
21:00 +9°C° 0 mm 1 m/s 743 mmHg 81%
22:00 +8°C° 0 mm 1 m/s 743 mmHg 83%
23:00 +8°C° 0 mm 1 m/s 743 mmHg 83%

Poimâine, 19 Aprilie, Luni

Timp Temperatura Precipitaţii Vânt Presiune Umiditate
00:00 +9°C° 0 mm 1 m/s 742 mmHg 84%
01:00 +9°C° 0 mm 1 m/s 742 mmHg 84%
02:00 +9°C° 0.1 mm 1 m/s 742 mmHg 87%
03:00 +8°C° 0.1 mm 2 m/s 742 mmHg 90%
04:00 +7°C° 0.1 mm 2 m/s 742 mmHg 92%
05:00 +8°C° 0.2 mm 3 m/s 742 mmHg 91%
06:00 +8°C° 0.2 mm 3 m/s 742 mmHg 90%
07:00 +8°C° 0.2 mm 3 m/s 742 mmHg 89%
08:00 +8°C° 0.1 mm 4 m/s 742 mmHg 82%
09:00 +10°C° 0.1 mm 4 m/s 741 mmHg 74%
10:00 +11°C° 0.1 mm 4 m/s 741 mmHg 66%
11:00 +12°C° 0.2 mm 4 m/s 741 mmHg 67%
12:00 +12°C° 0.2 mm 3 m/s 741 mmHg 67%
13:00 +12°C° 0.2 mm 3 m/s 741 mmHg 67%
14:00 +12°C° 0.3 mm 4 m/s 741 mmHg 67%
15:00 +12°C° 0.3 mm 4 m/s 740 mmHg 67%
16:00 +12°C° 0.3 mm 4 m/s 740 mmHg 67%
17:00 +11°C° 0.1 mm 4 m/s 740 mmHg 71%
18:00 +10°C° 0.1 mm 3 m/s 740 mmHg 76%
19:00 +8°C° 0.1 mm 2 m/s 740 mmHg 80%
20:00 +8°C° 0 mm 2 m/s 740 mmHg 83%
21:00 +7°C° 0 mm 2 m/s 740 mmHg 86%
22:00 +5°C° 0 mm 3 m/s 740 mmHg 89%
23:00 +6°C° 0 mm 2 m/s 740 mmHg 91%

20 Aprilie, Marţi

Timp Temperatura Precipitaţii Vânt Presiune Umiditate
00:00 +6°C° 0 mm 2 m/s 740 mmHg 92%
01:00 +6°C° 0 mm 2 m/s 740 mmHg 93%
02:00 +6°C° 0 mm 2 m/s 740 mmHg 93%
03:00 +6°C° 0 mm 2 m/s 739 mmHg 93%
04:00 +6°C° 0 mm 2 m/s 739 mmHg 93%
05:00 +6°C° 0 mm 2 m/s 739 mmHg 90%
06:00 +6°C° 0 mm 2 m/s 739 mmHg 88%
07:00 +7°C° 0 mm 2 m/s 739 mmHg 85%
08:00 +8°C° 0 mm 2 m/s 739 mmHg 76%
09:00 +9°C° 0 mm 2 m/s 739 mmHg 68%
10:00 +10°C° 0 mm 2 m/s 739 mmHg 59%
11:00 +12°C° 0.1 mm 2 m/s 738 mmHg 56%
12:00 +12°C° 0.1 mm 2 m/s 738 mmHg 54%
13:00 +12°C° 0.1 mm 3 m/s 738 mmHg 51%
14:00 +12°C° 0.1 mm 3 m/s 737 mmHg 52%
15:00 +12°C° 0.1 mm 3 m/s 737 mmHg 54%
16:00 +12°C° 0.1 mm 4 m/s 737 mmHg 55%
17:00 +10°C° 0.1 mm 3 m/s 737 mmHg 62%
18:00 +9°C° 0.1 mm 3 m/s 737 mmHg 69%
19:00 +8°C° 0.1 mm 2 m/s 737 mmHg 76%
20:00 +7°C° 0 mm 2 m/s 737 mmHg 79%
21:00 +6°C° 0 mm 2 m/s 737 mmHg 83%
22:00 +6°C° 0 mm 2 m/s 737 mmHg 86%
23:00 +5°C° 0 mm 2 m/s 737 mmHg 88%

21 Aprilie, Miercuri

Timp Temperatura Precipitaţii Vânt Presiune Umiditate
00:00 +5°C° 0 mm 2 m/s 736 mmHg 89%
01:00 +5°C° 0 mm 2 m/s 736 mmHg 91%
02:00 +4°C° 0.1 mm 2 m/s 736 mmHg 92%
03:00 +3°C° 0.1 mm 3 m/s 736 mmHg 93%
04:00 +3°C° 0.1 mm 3 m/s 736 mmHg 94%
05:00 +4°C° 0 mm 3 m/s 736 mmHg 90%
06:00 +5°C° 0 mm 3 m/s 736 mmHg 86%
07:00 +7°C° 0 mm 3 m/s 737 mmHg 82%
08:00 +7°C° 0 mm 4 m/s 737 mmHg 73%
09:00 +10°C° 0 mm 4 m/s 737 mmHg 64%
10:00 +11°C° 0 mm 4 m/s 737 mmHg 55%
11:00 +11°C° 0.1 mm 4 m/s 737 mmHg 54%
12:00 +12°C° 0.1 mm 4 m/s 737 mmHg 53%
13:00 +12°C° 0.1 mm 4 m/s 737 mmHg 52%
14:00 +12°C° 0 mm 3 m/s 737 mmHg 51%
15:00 +12°C° 0 mm 3 m/s 737 mmHg 50%
16:00 +13°C° 0 mm 3 m/s 737 mmHg 49%
17:00 +13°C° 0 mm 2 m/s 737 mmHg 52%
18:00 +12°C° 0 mm 1 m/s 737 mmHg 56%
19:00 +10°C° 0 mm 0 m/s 737 mmHg 60%
20:00 +10°C° 0 mm 1 m/s 738 mmHg 61%
21:00 +10°C° 0 mm 1 m/s 738 mmHg 62%
22:00 +9°C° 0 mm 2 m/s 738 mmHg 63%
23:00 +8°C° 0 mm 2 m/s 738 mmHg 66%

22 Aprilie, Joi

Timp Temperatura Precipitaţii Vânt Presiune Umiditate
00:00 +8°C° 0 mm 2 m/s 738 mmHg 69%
01:00 +7°C° 0 mm 2 m/s 738 mmHg 71%
02:00 +7°C° 0 mm 2 m/s 738 mmHg 75%
03:00 +6°C° 0 mm 2 m/s 738 mmHg 79%
04:00 +6°C° 0 mm 2 m/s 738 mmHg 83%
05:00 +7°C° 0 mm 3 m/s 738 mmHg 79%
06:00 +8°C° 0 mm 3 m/s 738 mmHg 74%
07:00 +10°C° 0 mm 3 m/s 739 mmHg 70%
08:00 +12°C° 0 mm 3 m/s 739 mmHg 63%
09:00 +14°C° 0 mm 4 m/s 739 mmHg 57%
10:00 +17°C° 0 mm 4 m/s 739 mmHg 50%
11:00 +17°C° 0.1 mm 4 m/s 739 mmHg 50%
12:00 +17°C° 0.1 mm 4 m/s 739 mmHg 50%
13:00 +17°C° 0.1 mm 4 m/s 739 mmHg 50%
14:00 +17°C° 0.4 mm 3 m/s 739 mmHg 52%
15:00 +17°C° 0.4 mm 3 m/s 739 mmHg 55%
16:00 +17°C° 0.4 mm 3 m/s 739 mmHg 57%
17:00 +15°C° 0.7 mm 2 m/s 739 mmHg 64%
18:00 +14°C° 0.7 mm 2 m/s 739 mmHg 72%
19:00 +12°C° 0.7 mm 2 m/s 739 mmHg 79%
20:00 +12°C° 0.2 mm 2 m/s 739 mmHg 83%
21:00 +10°C° 0.2 mm 2 m/s 740 mmHg 87%
22:00 +9°C° 0.2 mm 2 m/s 740 mmHg 90%
23:00 +9°C° 0 mm 2 m/s 740 mmHg 91%
Arată mai mult

Formular de consimțământ

Meteoprog și furnizorii noștri de servicii pot stoca și accesa date personale, precum cookies, identificatori de dispozitiv sau alte tehnologii similare pe dispozitivul dumneavoastră și procesa astfel de date pentru a personaliza conținutul și reclamele, dar și pentru a oferi caracteristici de social media și pentru a analiza traficul.

  • Stocarea și/sau accesarea informațiilor pe dispozitivul dumneavoastră

    Cookies, identificatori de dispozitiv sau alte informații pot fi stocate sau accesate pe dispozitiv în scopurile indicate mai sus.

  • Reclame și conținut personalizat, evaluarea reclamelor și a conținutului, informații despre audiențe și dezvoltarea produselor

    Reclamele și conținutul pot fi personalizate pe baza unui profil. Pot fi adăugate date suplimentare pentru a personaliza mai bine reclamele și conținutul. Performanța reclamelor și conținutului poate fi măsurată. Pot fi obținute informații despre utilizatorii care au văzut reclamele și conținutul. Aceste date pot fi utilizate pentru a dezvolta sau îmbunătăți experiența utilizatorilor, sistemele și software-ul.

Dând clic pe ‘Sunt de acord’, permiteți utilizarea cookie-urilor menționate, a identificatorilor de dispozitiv, balizelor web sau altor tehnologii similare. Setările pot fi modificate din browser-ul dispozitivului dumneavoastră.

În anumite scopuri, interesele legitime pot prima asupra consimțământului. Puteți citi mai multe informații în acest sens în Politica privind Confidențialitatea Datelor și Cookie.